Flag for Denmark Weather past 2 weeks in Aarhus, Denmark

Now
50 °F

Partly sunny.


Feels Like: 49 °F
Forecast: 46 / 60 °F
Wind: 3 mph from Southwest

Location: Tirstrup

Current Time: May 30, 2015 at 7:41:36 AM

Latest Report: May 30, 2015 at 7:20 AM


Visibility: N/A

Pressure: 29.45 "Hg

Humidity: 82%

Dew point: 45 °F

Location of AarhusLocation

Historic Weather in Aarhus — Graph

°F

Aarhus temperature yesterday

Maximum temperature yesterday: 55 °F (at 10:20 AM)
Minimum temperature yesterday: 43 °F (at 3:20 AM)
Average temperature yesterday: 50 °F

Past Weeks' High & Low Weather Summary

 TemperatureHumidityPressure
High63 °F (May 15, 3:50 PM)94% (May 19, 12:50 AM)30.21 "Hg (May 19, 12:50 AM)
Low39 °F (May 15, 6:20 AM)31% (May 15, 3:20 PM)29.45 "Hg (May 19, 2:50 AM)
Average50 °F69%29.91 "Hg
* Reported May 15 6:20 AM — May 30 6:20 AM, Aarhus, Weather by CustomWeather, © 2015

Note: Actual official high and low records may vary slightly from our data, if they occured in-between our weather recording intervals... More about our weather records

Advertising

Aarhus weather history for previous 24 hours

 ConditionsComfort  
Time TempWeatherWind HumidityBarometerVisibility
6:20 AM
Sat, May 30
50 °FSprinkles. Broken clouds.5 mph82%29.45 "HgN/A
5:50 AM50 °FPartly sunny.6 mph82%29.45 "HgN/A
5:20 AM50 °FPartly cloudy.3 mph82%29.45 "HgN/A
4:50 AM50 °FPassing clouds.6 mph82%29.45 "HgN/A
4:20 AM50 °FPassing clouds.6 mph82%29.47 "Hg6 mi
3:50 AM50 °FSprinkles. Passing clouds.7 mph88%29.47 "Hg4 mi
3:20 AM50 °FSprinkles. Passing clouds.8 mph88%29.47 "Hg4 mi
2:50 AM50 °FRain. Passing clouds.8 mph88%29.50 "Hg4 mi
2:20 AM50 °FRain. Passing clouds.8 mph88%29.50 "Hg4 mi
1:50 AM50 °FLight rain. Passing clouds.8 mph88%29.53 "Hg5 mi
1:20 AM48 °FLight rain. Partly cloudy.6 mph94%29.53 "Hg3 mi
12:50 AM48 °FLight rain. Fog.5 mph87%29.56 "Hg2 mi
12:20 AM48 °FDrizzle. Fog.5 mph87%29.59 "Hg2 mi
11:50 PM
Fri, May 29
48 °FDrizzle. Fog.5 mph87%29.59 "Hg2 mi
11:20 PM48 °FLight rain. Fog.5 mph87%29.62 "Hg3 mi
10:20 PM48 °FLight rain. Broken clouds.5 mph87%29.65 "Hg4 mi
9:50 PM48 °FLight rain. Partly sunny.6 mph87%29.65 "Hg4 mi
9:20 PM48 °FLight rain. Overcast.5 mph87%29.65 "Hg5 mi
8:50 PM50 °FDrizzle. Overcast.3 mph82%29.68 "HgN/A
8:20 PM50 °FDrizzle. Overcast.5 mph82%29.68 "HgN/A
7:50 PM50 °FLight rain. Overcast.5 mph82%29.68 "Hg6 mi
7:20 PM50 °FDrizzle. Overcast.6 mph82%29.71 "HgN/A
6:50 PM50 °FDrizzle. More clouds than sun.5 mph76%29.71 "HgN/A
6:20 PM50 °FDrizzle. Overcast.5 mph76%29.71 "HgN/A
5:50 PM50 °FDrizzle. Partly sunny.5 mph76%29.71 "HgN/A
5:20 PM52 °FSprinkles. Partly sunny.8 mph67%29.74 "HgN/A
4:50 PM52 °FSprinkles. Partly sunny.8 mph67%29.74 "HgN/A
4:20 PM54 °FPartly sunny.9 mph63%29.74 "HgN/A
3:50 PM54 °FSprinkles. Partly sunny.3 mph63%29.74 "HgN/A
3:20 PM55 °FSprinkles. Partly sunny.5 mph59%29.74 "HgN/A
2:50 PM55 °FPartly sunny.5 mph55%29.74 "HgN/A
2:20 PM55 °FScattered clouds.8 mph55%29.74 "HgN/A
1:50 PM55 °FPartly sunny.8 mph59%29.74 "HgN/A
1:20 PM54 °FPartly sunny.5 mph67%29.74 "HgN/A
12:50 PM52 °FSprinkles. Broken clouds.3 mph72%29.74 "HgN/A
12:20 PM54 °FPartly sunny.8 mph67%29.74 "HgN/A
11:50 AM52 °FPartly sunny.3 mph72%29.77 "HgN/A
11:20 AM50 °FRain showers. Broken clouds.6 mph76%29.77 "HgN/A
10:50 AM50 °FRain. Broken clouds.14 mph67%29.77 "Hg5 mi
10:20 AM55 °FPartly sunny.8 mph59%29.74 "HgN/A
9:50 AM54 °FPassing clouds.9 mph63%29.77 "HgN/A
9:20 AM52 °FPassing clouds.10 mph72%29.77 "HgN/A
8:50 AM52 °FScattered clouds.10 mph72%29.77 "HgN/A
8:20 AM52 °FPartly sunny.9 mph72%29.77 "HgN/A
7:50 AM50 °FScattered clouds.8 mph76%29.77 "HgN/A
7:20 AM50 °FPassing clouds.7 mph76%29.77 "HgN/A
Weather by CustomWeather, © 2015

See weather overviewHow to use our weather pages